When you browse on this site, cookies collect data to enhance your experience and personalize the content and advertising you see.
Visit our Privacy Policy to learn more. By continuing to use the site, you agree to this use of cookies and data.

Stündliche Wetter Shahtarsk

Heute, 23 September, Mittwoch

Zeit Temperatur Niederschläge Wind Luftdruck Luftfeuchtigkeit
00:00 +14°C° 0 mm 1 m/S 744 mmHg 33%
01:00 +13°C° 0 mm 1 m/S 744 mmHg 33%
02:00 +13°C° 0 mm 1 m/S 744 mmHg 33%
03:00 +12°C° 0 mm 0 m/S 744 mmHg 34%
04:00 +12°C° 0 mm 0 m/S 744 mmHg 34%
05:00 +12°C° 0 mm 1 m/S 744 mmHg 35%
06:00 +12°C° 0 mm 1 m/S 744 mmHg 36%
07:00 +15°C° 0 mm 1 m/S 744 mmHg 32%
08:00 +18°C° 0 mm 1 m/S 744 mmHg 28%
09:00 +20°C° 0 mm 2 m/S 744 mmHg 24%
10:00 +21°C° 0 mm 2 m/S 744 mmHg 21%
11:00 +24°C° 0 mm 2 m/S 744 mmHg 19%
12:00 +26°C° 0 mm 2 m/S 743 mmHg 16%
13:00 +26°C° 0 mm 2 m/S 743 mmHg 15%
14:00 +27°C° 0 mm 2 m/S 743 mmHg 14%
15:00 +28°C° 0 mm 2 m/S 743 mmHg 13%
16:00 +26°C° 0 mm 2 m/S 742 mmHg 14%
17:00 +25°C° 0 mm 2 m/S 742 mmHg 16%
18:00 +23°C° 0 mm 2 m/S 741 mmHg 18%
19:00 +21°C° 0 mm 2 m/S 741 mmHg 20%
20:00 +19°C° 0 mm 2 m/S 741 mmHg 22%
21:00 +18°C° 0 mm 2 m/S 741 mmHg 25%
22:00 +17°C° 0 mm 2 m/S 741 mmHg 26%
23:00 +16°C° 0 mm 2 m/S 741 mmHg 28%

Morgen, 24 September, Donnerstag

Zeit Temperatur Niederschläge Wind Luftdruck Luftfeuchtigkeit
00:00 +16°C° 0 mm 2 m/S 741 mmHg 30%
01:00 +15°C° 0 mm 2 m/S 741 mmHg 31%
02:00 +15°C° 0 mm 2 m/S 741 mmHg 33%
03:00 +15°C° 0 mm 2 m/S 741 mmHg 35%
04:00 +14°C° 0 mm 2 m/S 741 mmHg 36%
05:00 +14°C° 0 mm 2 m/S 741 mmHg 37%
06:00 +14°C° 0 mm 2 m/S 741 mmHg 39%
07:00 +16°C° 0 mm 2 m/S 741 mmHg 36%
08:00 +18°C° 0 mm 3 m/S 742 mmHg 34%
09:00 +20°C° 0 mm 3 m/S 742 mmHg 31%
10:00 +22°C° 0 mm 3 m/S 742 mmHg 30%
11:00 +25°C° 0 mm 4 m/S 742 mmHg 28%
12:00 +27°C° 0 mm 4 m/S 742 mmHg 26%
13:00 +28°C° 0 mm 4 m/S 741 mmHg 25%
14:00 +28°C° 0 mm 4 m/S 741 mmHg 23%
15:00 +29°C° 0 mm 4 m/S 741 mmHg 21%
16:00 +27°C° 0 mm 4 m/S 741 mmHg 24%
17:00 +26°C° 0 mm 3 m/S 740 mmHg 26%
18:00 +24°C° 0 mm 3 m/S 740 mmHg 29%
19:00 +22°C° 0 mm 3 m/S 740 mmHg 31%
20:00 +21°C° 0 mm 3 m/S 741 mmHg 33%
21:00 +19°C° 0 mm 4 m/S 741 mmHg 35%
22:00 +18°C° 0 mm 3 m/S 741 mmHg 37%
23:00 +18°C° 0 mm 3 m/S 741 mmHg 39%

übermorgen, 25 September, Freitag

Zeit Temperatur Niederschläge Wind Luftdruck Luftfeuchtigkeit
00:00 +17°C° 0 mm 3 m/S 740 mmHg 42%
01:00 +16°C° 0 mm 3 m/S 740 mmHg 44%
02:00 +16°C° 0 mm 2 m/S 740 mmHg 46%
03:00 +15°C° 0 mm 2 m/S 740 mmHg 49%
04:00 +15°C° 0 mm 2 m/S 740 mmHg 51%
05:00 +13°C° 0 mm 3 m/S 740 mmHg 53%
06:00 +13°C° 0 mm 3 m/S 741 mmHg 55%
07:00 +15°C° 0 mm 4 m/S 741 mmHg 49%
08:00 +18°C° 0 mm 4 m/S 741 mmHg 43%
09:00 +21°C° 0 mm 5 m/S 741 mmHg 36%
10:00 +22°C° 0 mm 5 m/S 741 mmHg 34%
11:00 +24°C° 0 mm 6 m/S 740 mmHg 32%
12:00 +27°C° 0 mm 6 m/S 740 mmHg 29%
13:00 +27°C° 0 mm 6 m/S 740 mmHg 28%
14:00 +28°C° 0 mm 5 m/S 740 mmHg 27%
15:00 +28°C° 0 mm 5 m/S 739 mmHg 26%
16:00 +27°C° 0 mm 5 m/S 739 mmHg 28%
17:00 +26°C° 0 mm 4 m/S 739 mmHg 30%
18:00 +25°C° 0 mm 3 m/S 738 mmHg 32%
19:00 +22°C° 0 mm 4 m/S 739 mmHg 33%
20:00 +21°C° 0 mm 4 m/S 739 mmHg 35%
21:00 +20°C° 0 mm 5 m/S 739 mmHg 37%
22:00 +19°C° 0 mm 5 m/S 738 mmHg 39%
23:00 +19°C° 0 mm 5 m/S 738 mmHg 41%

26 September, Samstag

Zeit Temperatur Niederschläge Wind Luftdruck Luftfeuchtigkeit
00:00 +17°C° 0 mm 5 m/S 738 mmHg 43%
01:00 +17°C° 0 mm 5 m/S 738 mmHg 44%
02:00 +16°C° 0 mm 5 m/S 738 mmHg 45%
03:00 +16°C° 0 mm 5 m/S 737 mmHg 46%
04:00 +15°C° 0 mm 5 m/S 737 mmHg 46%
05:00 +15°C° 0 mm 4 m/S 738 mmHg 46%
06:00 +15°C° 0 mm 4 m/S 738 mmHg 45%
07:00 +16°C° 0 mm 5 m/S 738 mmHg 42%
08:00 +19°C° 0 mm 6 m/S 738 mmHg 39%
09:00 +20°C° 0 mm 6 m/S 738 mmHg 36%
10:00 +23°C° 0 mm 6 m/S 738 mmHg 30%
11:00 +26°C° 0 mm 7 m/S 738 mmHg 23%
12:00 +28°C° 0 mm 7 m/S 738 mmHg 16%
13:00 +29°C° 0 mm 7 m/S 738 mmHg 16%
14:00 +29°C° 0 mm 7 m/S 738 mmHg 15%
15:00 +30°C° 0 mm 7 m/S 738 mmHg 15%
16:00 +28°C° 0 mm 7 m/S 738 mmHg 17%
17:00 +27°C° 0 mm 6 m/S 738 mmHg 20%
18:00 +26°C° 0 mm 6 m/S 738 mmHg 23%
19:00 +23°C° 0 mm 6 m/S 738 mmHg 32%
20:00 +21°C° 0 mm 6 m/S 738 mmHg 41%
21:00 +19°C° 0 mm 6 m/S 738 mmHg 50%
22:00 +17°C° 0 mm 6 m/S 738 mmHg 52%
23:00 +16°C° 0 mm 6 m/S 738 mmHg 53%

27 September, Sonntag

Zeit Temperatur Niederschläge Wind Luftdruck Luftfeuchtigkeit
00:00 +16°C° 0 mm 6 m/S 738 mmHg 55%
01:00 +15°C° 0 mm 6 m/S 738 mmHg 54%
02:00 +15°C° 0 mm 6 m/S 738 mmHg 53%
03:00 +15°C° 0 mm 6 m/S 738 mmHg 51%
04:00 +14°C° 0 mm 6 m/S 738 mmHg 52%
05:00 +14°C° 0 mm 7 m/S 738 mmHg 53%
06:00 +14°C° 0 mm 7 m/S 738 mmHg 53%
07:00 +15°C° 0 mm 8 m/S 738 mmHg 49%
08:00 +16°C° 0 mm 9 m/S 738 mmHg 45%
09:00 +18°C° 0 mm 9 m/S 738 mmHg 42%
10:00 +19°C° 0 mm 9 m/S 738 mmHg 38%
11:00 +22°C° 0 mm 9 m/S 738 mmHg 35%
12:00 +24°C° 0 mm 10 m/S 738 mmHg 31%
13:00 +26°C° 0 mm 10 m/S 737 mmHg 30%
14:00 +27°C° 0 mm 10 m/S 737 mmHg 29%
15:00 +28°C° 0 mm 9 m/S 737 mmHg 27%
16:00 +27°C° 0 mm 9 m/S 737 mmHg 29%
17:00 +26°C° 0 mm 8 m/S 737 mmHg 31%
18:00 +26°C° 0 mm 8 m/S 737 mmHg 32%
19:00 +24°C° 0.1 mm 8 m/S 737 mmHg 34%
20:00 +23°C° 0.1 mm 9 m/S 737 mmHg 35%
21:00 +22°C° 0.1 mm 9 m/S 737 mmHg 36%
22:00 +21°C° 0.2 mm 9 m/S 738 mmHg 40%
23:00 +20°C° 0.2 mm 8 m/S 738 mmHg 44%

28 September, Montag

Zeit Temperatur Niederschläge Wind Luftdruck Luftfeuchtigkeit
00:00 +18°C° 0.2 mm 8 m/S 738 mmHg 49%
01:00 +17°C° 0.6 mm 7 m/S 738 mmHg 53%
02:00 +17°C° 0.6 mm 7 m/S 738 mmHg 58%
03:00 +16°C° 0.6 mm 6 m/S 739 mmHg 62%
04:00 +15°C° 0.3 mm 5 m/S 739 mmHg 66%
05:00 +15°C° 0.3 mm 5 m/S 739 mmHg 69%
06:00 +14°C° 0.3 mm 4 m/S 740 mmHg 72%
07:00 +15°C° 0 mm 4 m/S 740 mmHg 69%
08:00 +17°C° 0 mm 4 m/S 741 mmHg 66%
09:00 +18°C° 0 mm 3 m/S 741 mmHg 63%
10:00 +20°C° 0 mm 3 m/S 741 mmHg 54%
11:00 +22°C° 0 mm 3 m/S 742 mmHg 46%
12:00 +25°C° 0 mm 3 m/S 742 mmHg 38%
13:00 +25°C° 0 mm 3 m/S 742 mmHg 33%
14:00 +26°C° 0 mm 3 m/S 742 mmHg 29%
15:00 +26°C° 0 mm 2 m/S 742 mmHg 24%
16:00 +25°C° 0 mm 2 m/S 742 mmHg 27%
17:00 +24°C° 0 mm 2 m/S 742 mmHg 29%
18:00 +22°C° 0 mm 1 m/S 742 mmHg 32%
19:00 +21°C° 0 mm 1 m/S 742 mmHg 35%
20:00 +20°C° 0 mm 1 m/S 742 mmHg 39%
21:00 +19°C° 0 mm 1 m/S 742 mmHg 43%
22:00 +18°C° 0 mm 2 m/S 742 mmHg 45%
23:00 +18°C° 0 mm 2 m/S 742 mmHg 48%
Mehr zeigen